Flag for U.S.A. Weather past 2 weeks in Green Bay, Wisconsin, U.S.A.

Now
80 °F

Broken clouds.


Feels Like: 83 °F
Forecast: 64 / 84 °F
Wind: 9 mph from West

Location: Austin Straubel International Airport

Current Time: Jul 26, 2014 at 3:05:48 PM

Latest Report: Jul 26, 2014 at 1:53 PM


Visibility: 10 mi

Pressure: 29.77 "Hg

Humidity: 71%

Dew point: 70 °F

Location of Green BayLocation

Historic Weather in Green Bay — Graph

°F

Green Bay temperature yesterday

Maximum temperature yesterday: 73 °F (at 2:53 PM)
Minimum temperature yesterday: 60 °F (at 2:53 AM)
Average temperature yesterday: 67 °F

Past Weeks' High & Low Weather Summary

 TemperatureHumidityPressure
High85 °F (Jul 21, 2:53 PM)97% (Jul 13, 1:53 AM)30.20 "Hg (Jul 13, 1:53 AM)
Low50 °F (Jul 16, 3:53 AM)27% (Jul 13, 1:53 PM)29.77 "Hg (Jul 26, 1:53 PM)
Average68 °F69%29.99 "Hg
* Reported Jul 11 1:53 PM — Jul 26 1:53 PM, Green Bay, Weather by CustomWeather, © 2014

Note: Actual official high and low records may vary slightly from our data, if they occured in-between our weather recording intervals... More about our weather records

Advertising

Green Bay weather history for previous 24 hours

 ConditionsComfort  
Time TempWeatherWind HumidityBarometerVisibility
1:53 PM
Jul 26
80 °FBroken clouds.9 mph71%29.77 "Hg10 mi
12:53 PM79 °FOvercast.9 mph72%29.78 "Hg9 mi
11:53 AM74 °FOvercast.6 mph79%29.78 "Hg9 mi
10:53 AM72 °FOvercast.9 mph81%29.81 "Hg10 mi
9:53 AM71 °FOvercast.8 mph84%29.80 "Hg10 mi
8:53 AM70 °FOvercast.7 mph84%29.80 "Hg10 mi
7:53 AM68 °FMostly cloudy.8 mph84%29.81 "Hg9 mi
6:53 AM67 °FOvercast.6 mph87%29.81 "Hg7 mi
5:53 AM66 °FOvercast.6 mph87%29.81 "Hg9 mi
4:53 AM65 °FOvercast.3 mph94%29.83 "Hg8 mi
3:53 AM65 °FOvercast.3 mph91%29.82 "Hg9 mi
2:53 AM66 °FClear.6 mph87%29.83 "Hg10 mi
1:53 AM66 °FPassing clouds.5 mph87%29.84 "Hg10 mi
12:53 AM66 °FPassing clouds.3 mph84%29.85 "Hg10 mi
11:53 PM
Jul 25
67 °FClear.5 mph81%29.85 "Hg10 mi
10:53 PM67 °FOvercast.3 mph81%29.85 "Hg10 mi
9:53 PM66 °FPassing clouds.5 mph84%29.87 "Hg10 mi
9:03 PM67 °FScattered clouds.3 mph81%29.88 "Hg10 mi
8:53 PM68 °FPartly sunny.6 mph78%29.87 "Hg10 mi
7:53 PM70 °FOvercast.6 mph73%29.87 "Hg10 mi
6:53 PM72 °FOvercast.10 mph68%29.87 "Hg10 mi
6:04 PM72 °FOvercast.9 mph68%29.88 "Hg10 mi
5:53 PM72 °FOvercast.9 mph68%29.87 "Hg10 mi
4:53 PM72 °FMostly cloudy.14 mph66%29.88 "Hg10 mi
3:53 PM72 °FOvercast.10 mph64%29.88 "Hg10 mi
Weather by CustomWeather, © 2014

See weather overviewHow to use our weather pages